This is the latest recevied weather packets stored in our database for station/object KO4LCK. If no packets are shown the sender has not sent any weather packets the latest 10 day(s).
| Time | Temp. | Humidity | Pressure | Rain* | Wind** | Luminosity | Snow |
|---|---|---|---|---|---|---|---|
| 1788294927 | 35.56° C | 42% | 1018.9 hPa | 0 mm | - | 512 W/m² | - |
| 1788294631 | 35.56° C | 42% | 1019 hPa | 0 mm | - | 536 W/m² | - |
| 1788294317 | 36.11° C | 40% | 1019.1 hPa | 0 mm | - | 558 W/m² | - |
| 1788294013 | 36.11° C | 41% | 1019.2 hPa | 0 mm | - | 569 W/m² | - |
| 1788293708 | 36.11° C | 41% | 1019.1 hPa | 0 mm | - | 589 W/m² | - |
| 1788293402 | 35.56° C | 42% | 1019.2 hPa | 0 mm | - | 591 W/m² | - |
| 1788293097 | 35° C | 43% | 1019.1 hPa | 0 mm | - | 615 W/m² | - |
| 1788292796 | 36.11° C | 41% | 1019.4 hPa | 0 mm | - | 105 W/m² | - |
| 1788292495 | 36.67° C | 39% | 1019.2 hPa | 0 mm | - | 628 W/m² | - |
| 1788292189 | 37.22° C | 41% | 1019.4 hPa | 0 mm | - | 642 W/m² | - |
| 1788291884 | 36.11° C | 41% | 1019.3 hPa | 0 mm | - | 653 W/m² | - |
| 1788291580 | 35.56° C | 39% | 1019.5 hPa | 0 mm | - | 660 W/m² | - |
| 1788291280 | 35° C | 41% | 1019.5 hPa | 0 mm | - | 667 W/m² | - |
| 1788290979 | 35° C | 44% | 1019.6 hPa | 0 mm | - | 682 W/m² | - |
| 1788290675 | 36.67° C | 41% | 1019.7 hPa | 0 mm | - | 682 W/m² | - |
| 1788290371 | 36.11° C | 43% | 1019.8 hPa | 0 mm | - | 702 W/m² | - |
| 1788290066 | 35.56° C | 44% | 1020.1 hPa | 0 mm | - | 729 W/m² | - |
| 1788289762 | 35° C | 46% | 1019.8 hPa | 0 mm | - | 733 W/m² | - |
| 1788289462 | 35° C | 42% | 1020 hPa | 0 mm | - | 741 W/m² | - |
| 1788289160 | 35.56° C | 44% | 1019.9 hPa | 0 mm | - | 759 W/m² | - |
| 1788288860 | 34.44° C | 45% | 1020 hPa | 0 mm | - | 757 W/m² | - |
| 1788288560 | 33.89° C | 46% | 1020.2 hPa | 0 mm | - | 813 W/m² | - |
| 1788288255 | 34.44° C | 46% | 1020.2 hPa | 0 mm | - | 177 W/m² | - |
| 1788287951 | 35.56° C | 46% | 1020.3 hPa | 0 mm | - | 728 W/m² | - |
| 1788287650 | 36.11° C | 44% | 1020.2 hPa | 0 mm | - | 235 W/m² | - |
* Rain latest hour (hover to see other rain measurements)
** Current wind speed in m/s (hover to see current wind gust speed)